This is the latest recevied weather packets stored in our database for station/object WB4YDL. If no packets are shown the sender has not sent any weather packets the latest 10 day(s).
| Time | Temp. | Humidity | Pressure | Rain* | Wind** | Luminosity | Snow |
|---|---|---|---|---|---|---|---|
| 1777817375 | 13.33° C | 68% | 1016.6 hPa | 0 mm | - | 436 W/m² | - |
| 1777817067 | 12.78° C | 67% | 1016.5 hPa | 0 mm | - | 420 W/m² | - |
| 1777816762 | 13.33° C | 70% | 1016.5 hPa | 0 mm | - | 403 W/m² | - |
| 1777816461 | 12.78° C | 72% | 1016.5 hPa | 0 mm | - | 388 W/m² | - |
| 1777816158 | 12.78° C | 71% | 1016.5 hPa | 0 mm | - | 372 W/m² | - |
| 1777815855 | 12.22° C | 70% | 1016.5 hPa | 0 mm | - | 355 W/m² | - |
| 1777815553 | 12.22° C | 70% | 1016.7 hPa | 0 mm | - | 341 W/m² | - |
| 1777815250 | 12.78° C | 72% | 1016.7 hPa | 0 mm | - | 325 W/m² | - |
| 1777814945 | 12.22° C | 75% | 1016.7 hPa | 0 mm | - | 307 W/m² | - |
| 1777814643 | 12.22° C | 74% | 1016.6 hPa | 0 mm | - | 291 W/m² | - |
| 1777814339 | 11.67° C | 74% | 1016.7 hPa | 0 mm | - | 118 W/m² | - |
| 1777814036 | 11.67° C | 74% | 1016.5 hPa | 0 mm | - | 240 W/m² | - |
| 1777813733 | 11.67° C | 78% | 1016.5 hPa | 0 mm | - | 287 W/m² | - |
| 1777813431 | 11.11° C | 77% | 1016.5 hPa | 0 mm | - | 261 W/m² | - |
| 1777813128 | 11.11° C | 78% | 1016.5 hPa | 0 mm | - | 261 W/m² | - |
| 1777812826 | 10.56° C | 79% | 1016.6 hPa | 0 mm | - | 263 W/m² | - |
| 1777812522 | 10.56° C | 81% | 1016.7 hPa | 0 mm | - | 240 W/m² | - |
| 1777812220 | 10° C | 82% | 1016.4 hPa | 0 mm | - | 210 W/m² | - |
| 1777811918 | 10° C | 84% | 1016.4 hPa | 0 mm | - | 183 W/m² | - |
| 1777811617 | 8.89° C | 85% | 1016.5 hPa | 0 mm | - | 111 W/m² | - |
| 1777811312 | 8.33° C | 88% | 1016.1 hPa | 0 mm | - | 96 W/m² | - |
| 1777811009 | 7.78° C | 91% | 1016.3 hPa | 0 mm | - | 84 W/m² | - |
| 1777810706 | 7.78° C | 96% | 1016.3 hPa | 0 mm | - | 74 W/m² | - |
| 1777810403 | 7.22° C | 99% | 1016.4 hPa | 0 mm | - | 65 W/m² | - |
| 1777810098 | 7.22° C | 99% | 1016.1 hPa | 0 mm | - | 57 W/m² | - |
* Rain latest hour (hover to see other rain measurements)
** Current wind speed in m/s (hover to see current wind gust speed)